<?xml version="1.0" encoding="UTF-8" standalone="no" ?>
<gpx xmlns="http://www.topografix.com/GPX/1/1" xmlns:xsi="http://www.w3.org/2001/XMLSchema-instance" xsi:schemaLocation="http://www.topografix.com/GPX/1/1 http://www.topografix.com/GPX/1/1/gpx.xsd" version="1.1" creator="VisuGPX - https://www.visugpx.com">
  <metadata>
    <name>TDG secteur 1</name>
    <desc><![CDATA[Premier secteur du TDG 2010]]></desc>
  </metadata>
  <trk>
    <name><![CDATA[TDG 1-7]]></name>
    <desc><![CDATA[15-juin-10 16:30:47-10:07:05- filte]]></desc>
    <trkseg>
      <trkpt lat="45.79251" lon="6.97217">
        <ele>1217.066406</ele>
        <time>2010-06-15T14:30:47.238Z</time>
      </trkpt>
      <trkpt lat="45.79259" lon="6.97171">
        <ele>1213.256348</ele>
        <time>2010-06-15T14:30:47.238Z</time>
      </trkpt>
      <trkpt lat="45.79191" lon="6.97152">
        <ele>1207.251831</ele>
        <time>2010-06-15T14:30:47.238Z</time>
      </trkpt>
      <trkpt lat="45.7915" lon="6.97087">
        <ele>1202.131226</ele>
        <time>2010-06-15T14:30:47.238Z</time>
      </trkpt>
      <trkpt lat="45.79094" lon="6.97044">
        <ele>1196.248535</ele>
        <time>2010-06-15T14:30:47.238Z</time>
      </trkpt>
      <trkpt lat="45.79098" lon="6.97">
        <ele>1191.432739</ele>
        <time>2010-06-15T14:30:47.238Z</time>
      </trkpt>
      <trkpt lat="45.79275" lon="6.96786">
        <ele>1170.584351</ele>
        <time>2010-06-15T14:30:47.238Z</time>
      </trkpt>
      <trkpt lat="45.79266" lon="6.96708">
        <ele>1176.558472</ele>
        <time>2010-06-15T14:30:47.238Z</time>
      </trkpt>
      <trkpt lat="45.79172" lon="6.96544">
        <ele>1203.624634</ele>
        <time>2010-06-15T14:30:47.238Z</time>
      </trkpt>
      <trkpt lat="45.79065" lon="6.96584">
        <ele>1204.813477</ele>
        <time>2010-06-15T14:30:47.238Z</time>
      </trkpt>
      <trkpt lat="45.78919" lon="6.96546">
        <ele>1213.805054</ele>
        <time>2010-06-15T14:30:47.238Z</time>
      </trkpt>
      <trkpt lat="45.78819" lon="6.96472">
        <ele>1215.633911</ele>
        <time>2010-06-15T14:30:47.238Z</time>
      </trkpt>
      <trkpt lat="45.78682" lon="6.96291">
        <ele>1223.741455</ele>
        <time>2010-06-15T14:30:47.238Z</time>
      </trkpt>
      <trkpt lat="45.78687" lon="6.96227">
        <ele>1243.614502</ele>
        <time>2010-06-15T14:30:47.238Z</time>
      </trkpt>
      <trkpt lat="45.78589" lon="6.96227">
        <ele>1291.224121</ele>
        <time>2010-06-15T14:30:47.238Z</time>
      </trkpt>
      <trkpt lat="45.78621" lon="6.96198">
        <ele>1288.328613</ele>
        <time>2010-06-15T14:30:47.238Z</time>
      </trkpt>
      <trkpt lat="45.7859" lon="6.9619">
        <ele>1308.262573</ele>
        <time>2010-06-15T14:30:47.238Z</time>
      </trkpt>
      <trkpt lat="45.78649" lon="6.96118">
        <ele>1305.062256</ele>
        <time>2010-06-15T14:30:47.238Z</time>
      </trkpt>
      <trkpt lat="45.7866" lon="6.96062">
        <ele>1317.650391</ele>
        <time>2010-06-15T14:30:47.238Z</time>
      </trkpt>
      <trkpt lat="45.78589" lon="6.96079">
        <ele>1355.262695</ele>
        <time>2010-06-15T14:30:47.238Z</time>
      </trkpt>
      <trkpt lat="45.78524" lon="6.9613">
        <ele>1371.53894</ele>
        <time>2010-06-15T14:30:47.238Z</time>
      </trkpt>
      <trkpt lat="45.78455" lon="6.96131">
        <ele>1395.313354</ele>
        <time>2010-06-15T14:30:47.238Z</time>
      </trkpt>
      <trkpt lat="45.78469" lon="6.96081">
        <ele>1409.364746</ele>
        <time>2010-06-15T14:30:47.238Z</time>
      </trkpt>
      <trkpt lat="45.78382" lon="6.96145">
        <ele>1427.25647</ele>
        <time>2010-06-15T14:30:47.238Z</time>
      </trkpt>
      <trkpt lat="45.78407" lon="6.96107">
        <ele>1429.024292</ele>
        <time>2010-06-15T14:30:47.238Z</time>
      </trkpt>
      <trkpt lat="45.7839" lon="6.96105">
        <ele>1438.625488</ele>
        <time>2010-06-15T14:30:47.238Z</time>
      </trkpt>
      <trkpt lat="45.78306" lon="6.96153">
        <ele>1461.119873</ele>
        <time>2010-06-15T14:30:47.238Z</time>
      </trkpt>
      <trkpt lat="45.78274" lon="6.96202">
        <ele>1457.492554</ele>
        <time>2010-06-15T14:30:47.238Z</time>
      </trkpt>
      <trkpt lat="45.78242" lon="6.96208">
        <ele>1462.095093</ele>
        <time>2010-06-15T14:30:47.238Z</time>
      </trkpt>
      <trkpt lat="45.78236" lon="6.96174">
        <ele>1476.786499</ele>
        <time>2010-06-15T14:30:47.238Z</time>
      </trkpt>
      <trkpt lat="45.78174" lon="6.96167">
        <ele>1487.606934</ele>
        <time>2010-06-15T14:30:47.238Z</time>
      </trkpt>
      <trkpt lat="45.78203" lon="6.96109">
        <ele>1509.400146</ele>
        <time>2010-06-15T14:30:47.238Z</time>
      </trkpt>
      <trkpt lat="45.78199" lon="6.96031">
        <ele>1545.092163</ele>
        <time>2010-06-15T14:30:47.238Z</time>
      </trkpt>
      <trkpt lat="45.78248" lon="6.95962">
        <ele>1564.873657</ele>
        <time>2010-06-15T14:30:47.238Z</time>
      </trkpt>
      <trkpt lat="45.78143" lon="6.95956">
        <ele>1580.875732</ele>
        <time>2010-06-15T14:30:47.238Z</time>
      </trkpt>
      <trkpt lat="45.78162" lon="6.95928">
        <ele>1590.35498</ele>
        <time>2010-06-15T14:30:47.238Z</time>
      </trkpt>
      <trkpt lat="45.7807" lon="6.95885">
        <ele>1602.91272</ele>
        <time>2010-06-15T14:30:47.238Z</time>
      </trkpt>
      <trkpt lat="45.78093" lon="6.95838">
        <ele>1614.4646</ele>
        <time>2010-06-15T14:30:47.238Z</time>
      </trkpt>
      <trkpt lat="45.78096" lon="6.95767">
        <ele>1618.914673</ele>
        <time>2010-06-15T14:30:47.238Z</time>
      </trkpt>
      <trkpt lat="45.78177" lon="6.95554">
        <ele>1685.147827</ele>
        <time>2010-06-15T14:30:47.238Z</time>
      </trkpt>
      <trkpt lat="45.78156" lon="6.95401">
        <ele>1725.990967</ele>
        <time>2010-06-15T14:30:47.238Z</time>
      </trkpt>
      <trkpt lat="45.7809" lon="6.95267">
        <ele>1762.32312</ele>
        <time>2010-06-15T14:30:47.238Z</time>
      </trkpt>
      <trkpt lat="45.78055" lon="6.95092">
        <ele>1808.104126</ele>
        <time>2010-06-15T14:30:47.238Z</time>
      </trkpt>
      <trkpt lat="45.78034" lon="6.9505">
        <ele>1830.872559</ele>
        <time>2010-06-15T14:30:47.238Z</time>
      </trkpt>
      <trkpt lat="45.77901" lon="6.9506">
        <ele>1830.354492</ele>
        <time>2010-06-15T14:30:47.238Z</time>
      </trkpt>
      <trkpt lat="45.77825" lon="6.95002">
        <ele>1846.173584</ele>
        <time>2010-06-15T14:30:47.238Z</time>
      </trkpt>
      <trkpt lat="45.77869" lon="6.94982">
        <ele>1871.959717</ele>
        <time>2010-06-15T14:30:47.238Z</time>
      </trkpt>
      <trkpt lat="45.77749" lon="6.94929">
        <ele>1863.181396</ele>
        <time>2010-06-15T14:30:47.238Z</time>
      </trkpt>
      <trkpt lat="45.77728" lon="6.94885">
        <ele>1880.067383</ele>
        <time>2010-06-15T14:30:47.238Z</time>
      </trkpt>
      <trkpt lat="45.77677" lon="6.94856">
        <ele>1895.337769</ele>
        <time>2010-06-15T14:30:47.238Z</time>
      </trkpt>
      <trkpt lat="45.7772" lon="6.94839">
        <ele>1900.366943</ele>
        <time>2010-06-15T14:30:47.238Z</time>
      </trkpt>
      <trkpt lat="45.77784" lon="6.94879">
        <ele>1898.568726</ele>
        <time>2010-06-15T14:30:47.238Z</time>
      </trkpt>
      <trkpt lat="45.77738" lon="6.94806">
        <ele>1918.898926</ele>
        <time>2010-06-15T14:30:47.238Z</time>
      </trkpt>
      <trkpt lat="45.77644" lon="6.94748">
        <ele>1945.629761</ele>
        <time>2010-06-15T14:30:47.238Z</time>
      </trkpt>
      <trkpt lat="45.77695" lon="6.94746">
        <ele>1946.23938</ele>
        <time>2010-06-15T14:30:47.238Z</time>
      </trkpt>
      <trkpt lat="45.77631" lon="6.94699">
        <ele>1968.398438</ele>
        <time>2010-06-15T14:30:47.238Z</time>
      </trkpt>
      <trkpt lat="45.77727" lon="6.947">
        <ele>1976.109741</ele>
        <time>2010-06-15T14:30:47.238Z</time>
      </trkpt>
      <trkpt lat="45.77608" lon="6.94605">
        <ele>1995.982788</ele>
        <time>2010-06-15T14:30:47.238Z</time>
      </trkpt>
      <trkpt lat="45.77685" lon="6.9459">
        <ele>2002.261719</ele>
        <time>2010-06-15T14:30:47.238Z</time>
      </trkpt>
      <trkpt lat="45.77569" lon="6.9449">
        <ele>2023.079468</ele>
        <time>2010-06-15T14:30:47.238Z</time>
      </trkpt>
      <trkpt lat="45.77618" lon="6.94463">
        <ele>2026.096924</ele>
        <time>2010-06-15T14:30:47.238Z</time>
      </trkpt>
      <trkpt lat="45.7757" lon="6.94349">
        <ele>2059.899414</ele>
        <time>2010-06-15T14:30:47.238Z</time>
      </trkpt>
      <trkpt lat="45.77523" lon="6.94372">
        <ele>2064.958984</ele>
        <time>2010-06-15T14:30:47.238Z</time>
      </trkpt>
      <trkpt lat="45.77452" lon="6.9426">
        <ele>2092.055908</ele>
        <time>2010-06-15T14:30:47.238Z</time>
      </trkpt>
      <trkpt lat="45.77407" lon="6.94144">
        <ele>2114.275635</ele>
        <time>2010-06-15T14:30:47.238Z</time>
      </trkpt>
      <trkpt lat="45.77399" lon="6.94045">
        <ele>2128.844971</ele>
        <time>2010-06-15T14:30:47.238Z</time>
      </trkpt>
      <trkpt lat="45.77357" lon="6.93951">
        <ele>2161.763428</ele>
        <time>2010-06-15T14:30:47.238Z</time>
      </trkpt>
      <trkpt lat="45.77341" lon="6.93808">
        <ele>2193.493164</ele>
        <time>2010-06-15T14:30:47.238Z</time>
      </trkpt>
      <trkpt lat="45.77155" lon="6.93716">
        <ele>2241.316406</ele>
        <time>2010-06-15T14:30:47.238Z</time>
      </trkpt>
      <trkpt lat="45.77128" lon="6.93663">
        <ele>2252.898682</ele>
        <time>2010-06-15T14:30:47.238Z</time>
      </trkpt>
      <trkpt lat="45.77096" lon="6.9348">
        <ele>2276.490234</ele>
        <time>2010-06-15T14:30:47.238Z</time>
      </trkpt>
      <trkpt lat="45.77104" lon="6.93374">
        <ele>2284.110107</ele>
        <time>2010-06-15T14:30:47.238Z</time>
      </trkpt>
      <trkpt lat="45.7704" lon="6.93129">
        <ele>2319.710938</ele>
        <time>2010-06-15T14:30:47.238Z</time>
      </trkpt>
      <trkpt lat="45.76927" lon="6.92807">
        <ele>2369.576172</ele>
        <time>2010-06-15T14:30:47.238Z</time>
      </trkpt>
      <trkpt lat="45.76948" lon="6.9279">
        <ele>2376.616943</ele>
        <time>2010-06-15T14:30:47.238Z</time>
      </trkpt>
      <trkpt lat="45.76857" lon="6.92543">
        <ele>2438.948486</ele>
        <time>2010-06-15T14:30:47.238Z</time>
      </trkpt>
      <trkpt lat="45.76839" lon="6.92532">
        <ele>2446.477295</ele>
        <time>2010-06-15T14:30:47.238Z</time>
      </trkpt>
      <trkpt lat="45.76866" lon="6.92439">
        <ele>2464.887207</ele>
        <time>2010-06-15T14:30:47.238Z</time>
      </trkpt>
      <trkpt lat="45.76821" lon="6.92413">
        <ele>2493.050537</ele>
        <time>2010-06-15T14:30:47.238Z</time>
      </trkpt>
      <trkpt lat="45.76866" lon="6.92328">
        <ele>2503.627197</ele>
        <time>2010-06-15T14:30:47.238Z</time>
      </trkpt>
      <trkpt lat="45.76851" lon="6.92284">
        <ele>2522.646729</ele>
        <time>2010-06-15T14:30:47.238Z</time>
      </trkpt>
      <trkpt lat="45.76877" lon="6.92245">
        <ele>2536.210449</ele>
        <time>2010-06-15T14:30:47.238Z</time>
      </trkpt>
      <trkpt lat="45.76863" lon="6.92232">
        <ele>2538.496338</ele>
        <time>2010-06-15T14:30:47.238Z</time>
      </trkpt>
      <trkpt lat="45.7689" lon="6.92235">
        <ele>2540.873779</ele>
        <time>2010-06-15T14:30:47.238Z</time>
      </trkpt>
      <trkpt lat="45.76873" lon="6.92189">
        <ele>2551.328369</ele>
        <time>2010-06-15T14:30:47.238Z</time>
      </trkpt>
      <trkpt lat="45.76898" lon="6.92191">
        <ele>2557.485352</ele>
        <time>2010-06-15T14:30:47.238Z</time>
      </trkpt>
      <trkpt lat="45.76872" lon="6.921">
        <ele>2550.017822</ele>
        <time>2010-06-15T14:30:47.238Z</time>
      </trkpt>
      <trkpt lat="45.76807" lon="6.92124">
        <ele>2525.085205</ele>
        <time>2010-06-15T14:30:47.255Z</time>
      </trkpt>
      <trkpt lat="45.76745" lon="6.92191">
        <ele>2510.820313</ele>
        <time>2010-06-15T14:30:47.255Z</time>
      </trkpt>
      <trkpt lat="45.76667" lon="6.92231">
        <ele>2483.296875</ele>
        <time>2010-06-15T14:30:47.255Z</time>
      </trkpt>
      <trkpt lat="45.76577" lon="6.92248">
        <ele>2455.07251</ele>
        <time>2010-06-15T14:30:47.255Z</time>
      </trkpt>
      <trkpt lat="45.76488" lon="6.9219">
        <ele>2423.098877</ele>
        <time>2010-06-15T14:30:47.255Z</time>
      </trkpt>
      <trkpt lat="45.7644" lon="6.92112">
        <ele>2394.813721</ele>
        <time>2010-06-15T14:30:47.255Z</time>
      </trkpt>
      <trkpt lat="45.76173" lon="6.92113">
        <ele>2348.727783</ele>
        <time>2010-06-15T14:30:47.255Z</time>
      </trkpt>
      <trkpt lat="45.76093" lon="6.92176">
        <ele>2324.435303</ele>
        <time>2010-06-15T14:30:47.255Z</time>
      </trkpt>
      <trkpt lat="45.76063" lon="6.92242">
        <ele>2313.157715</ele>
        <time>2010-06-15T14:30:47.255Z</time>
      </trkpt>
      <trkpt lat="45.75983" lon="6.92298">
        <ele>2284.079834</ele>
        <time>2010-06-15T14:30:47.255Z</time>
      </trkpt>
      <trkpt lat="45.75891" lon="6.92416">
        <ele>2253.051025</ele>
        <time>2010-06-15T14:30:47.255Z</time>
      </trkpt>
      <trkpt lat="45.75802" lon="6.92444">
        <ele>2241.560303</ele>
        <time>2010-06-15T14:30:47.255Z</time>
      </trkpt>
      <trkpt lat="45.75773" lon="6.92477">
        <ele>2235.769043</ele>
        <time>2010-06-15T14:30:47.255Z</time>
      </trkpt>
      <trkpt lat="45.75719" lon="6.92477">
        <ele>2229.48999</ele>
        <time>2010-06-15T14:30:47.255Z</time>
      </trkpt>
      <trkpt lat="45.75651" lon="6.92563">
        <ele>2224.217041</ele>
        <time>2010-06-15T14:30:47.255Z</time>
      </trkpt>
      <trkpt lat="45.7558" lon="6.92545">
        <ele>2228.057373</ele>
        <time>2010-06-15T14:30:47.255Z</time>
      </trkpt>
      <trkpt lat="45.75478" lon="6.92663">
        <ele>2198.73584</ele>
        <time>2010-06-15T14:30:47.255Z</time>
      </trkpt>
      <trkpt lat="45.75374" lon="6.92718">
        <ele>2184.867432</ele>
        <time>2010-06-15T14:30:47.255Z</time>
      </trkpt>
      <trkpt lat="45.75315" lon="6.92775">
        <ele>2173.041016</ele>
        <time>2010-06-15T14:30:47.255Z</time>
      </trkpt>
      <trkpt lat="45.75151" lon="6.93029">
        <ele>2119.579102</ele>
        <time>2010-06-15T14:30:47.255Z</time>
      </trkpt>
      <trkpt lat="45.75123" lon="6.93001">
        <ele>2114.153809</ele>
        <time>2010-06-15T14:30:47.255Z</time>
      </trkpt>
      <trkpt lat="45.751" lon="6.93012">
        <ele>2108.454102</ele>
        <time>2010-06-15T14:30:47.255Z</time>
      </trkpt>
      <trkpt lat="45.74858" lon="6.93234">
        <ele>2080.168701</ele>
        <time>2010-06-15T14:30:47.255Z</time>
      </trkpt>
      <trkpt lat="45.74722" lon="6.93413">
        <ele>2070.963623</ele>
        <time>2010-06-15T14:30:47.255Z</time>
      </trkpt>
      <trkpt lat="45.74609" lon="6.93624">
        <ele>2052.462158</ele>
        <time>2010-06-15T14:30:47.255Z</time>
      </trkpt>
      <trkpt lat="45.74516" lon="6.93695">
        <ele>2049.841064</ele>
        <time>2010-06-15T14:30:47.255Z</time>
      </trkpt>
      <trkpt lat="45.74469" lon="6.93809">
        <ele>2040.178833</ele>
        <time>2010-06-15T14:30:47.255Z</time>
      </trkpt>
      <trkpt lat="45.7434" lon="6.93955">
        <ele>2024.268188</ele>
        <time>2010-06-15T14:30:47.255Z</time>
      </trkpt>
      <trkpt lat="45.7427" lon="6.94094">
        <ele>2018.507446</ele>
        <time>2010-06-15T14:30:47.255Z</time>
      </trkpt>
      <trkpt lat="45.7426" lon="6.94187">
        <ele>1999.823364</ele>
        <time>2010-06-15T14:30:47.255Z</time>
      </trkpt>
      <trkpt lat="45.74302" lon="6.94245">
        <ele>2012.411499</ele>
        <time>2010-06-15T14:30:47.255Z</time>
      </trkpt>
      <trkpt lat="45.74326" lon="6.94324">
        <ele>1999.244263</ele>
        <time>2010-06-15T14:30:47.255Z</time>
      </trkpt>
      <trkpt lat="45.7431" lon="6.94335">
        <ele>1987.936157</ele>
        <time>2010-06-15T14:30:47.255Z</time>
      </trkpt>
      <trkpt lat="45.74262" lon="6.94289">
        <ele>1972.879028</ele>
        <time>2010-06-15T14:30:47.255Z</time>
      </trkpt>
      <trkpt lat="45.74286" lon="6.94355">
        <ele>1966.051392</ele>
        <time>2010-06-15T14:30:47.255Z</time>
      </trkpt>
      <trkpt lat="45.7429" lon="6.94474">
        <ele>1930.145996</ele>
        <time>2010-06-15T14:30:47.255Z</time>
      </trkpt>
      <trkpt lat="45.74251" lon="6.94348">
        <ele>1945.050659</ele>
        <time>2010-06-15T14:30:47.255Z</time>
      </trkpt>
      <trkpt lat="45.74258" lon="6.94462">
        <ele>1912.406616</ele>
        <time>2010-06-15T14:30:47.255Z</time>
      </trkpt>
      <trkpt lat="45.74236" lon="6.94517">
        <ele>1895.459839</ele>
        <time>2010-06-15T14:30:47.255Z</time>
      </trkpt>
      <trkpt lat="45.74236" lon="6.94444">
        <ele>1905.426636</ele>
        <time>2010-06-15T14:30:47.255Z</time>
      </trkpt>
      <trkpt lat="45.74227" lon="6.94458">
        <ele>1899.452637</ele>
        <time>2010-06-15T14:30:47.255Z</time>
      </trkpt>
      <trkpt lat="45.74129" lon="6.9468">
        <ele>1860.346802</ele>
        <time>2010-06-15T14:30:47.255Z</time>
      </trkpt>
      <trkpt lat="45.7409" lon="6.94835">
        <ele>1846.661255</ele>
        <time>2010-06-15T14:30:47.255Z</time>
      </trkpt>
      <trkpt lat="45.74139" lon="6.95151">
        <ele>1855.256592</ele>
        <time>2010-06-15T14:30:47.255Z</time>
      </trkpt>
      <trkpt lat="45.74071" lon="6.94988">
        <ele>1830.262939</ele>
        <time>2010-06-15T14:30:47.255Z</time>
      </trkpt>
      <trkpt lat="45.74052" lon="6.95028">
        <ele>1819.198853</ele>
        <time>2010-06-15T14:30:47.255Z</time>
      </trkpt>
      <trkpt lat="45.74046" lon="6.94989">
        <ele>1813.560059</ele>
        <time>2010-06-15T14:30:47.255Z</time>
      </trkpt>
      <trkpt lat="45.74027" lon="6.95014">
        <ele>1801.032715</ele>
        <time>2010-06-15T14:30:47.255Z</time>
      </trkpt>
      <trkpt lat="45.74009" lon="6.94977">
        <ele>1787.895752</ele>
        <time>2010-06-15T14:30:47.255Z</time>
      </trkpt>
      <trkpt lat="45.73909" lon="6.94961">
        <ele>1753.697266</ele>
        <time>2010-06-15T14:30:47.255Z</time>
      </trkpt>
      <trkpt lat="45.73855" lon="6.94986">
        <ele>1745.894409</ele>
        <time>2010-06-15T14:30:47.255Z</time>
      </trkpt>
      <trkpt lat="45.73848" lon="6.9491">
        <ele>1776.801147</ele>
        <time>2010-06-15T14:30:47.255Z</time>
      </trkpt>
      <trkpt lat="45.7377" lon="6.9496">
        <ele>1777.807007</ele>
        <time>2010-06-15T14:30:47.255Z</time>
      </trkpt>
      <trkpt lat="45.73708" lon="6.95051">
        <ele>1735.896973</ele>
        <time>2010-06-15T14:30:47.255Z</time>
      </trkpt>
      <trkpt lat="45.73699" lon="6.95153">
        <ele>1716.29834</ele>
        <time>2010-06-15T14:30:47.255Z</time>
      </trkpt>
      <trkpt lat="45.73622" lon="6.95154">
        <ele>1700.75354</ele>
        <time>2010-06-15T14:30:47.255Z</time>
      </trkpt>
      <trkpt lat="45.73581" lon="6.95124">
        <ele>1696.943481</ele>
        <time>2010-06-15T14:30:47.255Z</time>
      </trkpt>
      <trkpt lat="45.73617" lon="6.95193">
        <ele>1688.835815</ele>
        <time>2010-06-15T14:30:47.255Z</time>
      </trkpt>
      <trkpt lat="45.73505" lon="6.95091">
        <ele>1687.647095</ele>
        <time>2010-06-15T14:30:47.255Z</time>
      </trkpt>
      <trkpt lat="45.73417" lon="6.95044">
        <ele>1674.510132</ele>
        <time>2010-06-15T14:30:47.255Z</time>
      </trkpt>
      <trkpt lat="45.73301" lon="6.94894">
        <ele>1658.355835</ele>
        <time>2010-06-15T14:30:47.255Z</time>
      </trkpt>
      <trkpt lat="45.73314" lon="6.94961">
        <ele>1641.256592</ele>
        <time>2010-06-15T14:30:47.255Z</time>
      </trkpt>
      <trkpt lat="45.73403" lon="6.95139">
        <ele>1624.64502</ele>
        <time>2010-06-15T14:30:47.255Z</time>
      </trkpt>
      <trkpt lat="45.73333" lon="6.95042">
        <ele>1627.23584</ele>
        <time>2010-06-15T14:30:47.255Z</time>
      </trkpt>
      <trkpt lat="45.73231" lon="6.94977">
        <ele>1586.788818</ele>
        <time>2010-06-15T14:30:47.255Z</time>
      </trkpt>
      <trkpt lat="45.73096" lon="6.94792">
        <ele>1585.356201</ele>
        <time>2010-06-15T14:30:47.255Z</time>
      </trkpt>
      <trkpt lat="45.73003" lon="6.94762">
        <ele>1570.116211</ele>
        <time>2010-06-15T14:30:47.255Z</time>
      </trkpt>
      <trkpt lat="45.72921" lon="6.94772">
        <ele>1553.474243</ele>
        <time>2010-06-15T14:30:47.255Z</time>
      </trkpt>
      <trkpt lat="45.72821" lon="6.94639">
        <ele>1557.924194</ele>
        <time>2010-06-15T14:30:47.255Z</time>
      </trkpt>
      <trkpt lat="45.7272" lon="6.94573">
        <ele>1554.022827</ele>
        <time>2010-06-15T14:30:47.255Z</time>
      </trkpt>
      <trkpt lat="45.7267" lon="6.94457">
        <ele>1579.260132</ele>
        <time>2010-06-15T14:30:47.255Z</time>
      </trkpt>
      <trkpt lat="45.72609" lon="6.94451">
        <ele>1574.200562</ele>
        <time>2010-06-15T14:30:47.255Z</time>
      </trkpt>
      <trkpt lat="45.72586" lon="6.94409">
        <ele>1658.081543</ele>
        <time>2010-06-15T14:30:47.255Z</time>
      </trkpt>
      <trkpt lat="45.72539" lon="6.9444">
        <ele>1642.658569</ele>
        <time>2010-06-15T14:30:47.255Z</time>
      </trkpt>
      <trkpt lat="45.72386" lon="6.94421">
        <ele>1560.667358</ele>
        <time>2010-06-15T14:30:47.255Z</time>
      </trkpt>
      <trkpt lat="45.7228" lon="6.94452">
        <ele>1551.736816</ele>
        <time>2010-06-15T14:30:47.255Z</time>
      </trkpt>
      <trkpt lat="45.72097" lon="6.94562">
        <ele>1501.231323</ele>
        <time>2010-06-15T14:30:47.255Z</time>
      </trkpt>
      <trkpt lat="45.71969" lon="6.94576">
        <ele>1464.990723</ele>
        <time>2010-06-15T14:30:47.255Z</time>
      </trkpt>
      <trkpt lat="45.71946" lon="6.94609">
        <ele>1454.657959</ele>
        <time>2010-06-15T14:30:47.255Z</time>
      </trkpt>
      <trkpt lat="45.71857" lon="6.94645">
        <ele>1443.532837</ele>
        <time>2010-06-15T14:30:47.255Z</time>
      </trkpt>
      <trkpt lat="45.71811" lon="6.94756">
        <ele>1441.033325</ele>
        <time>2010-06-15T14:30:47.255Z</time>
      </trkpt>
      <trkpt lat="45.71687" lon="6.94862">
        <ele>1449.842163</ele>
        <time>2010-06-15T14:30:47.255Z</time>
      </trkpt>
      <trkpt lat="45.71682" lon="6.94899">
        <ele>1449.689819</ele>
        <time>2010-06-15T14:30:47.255Z</time>
      </trkpt>
      <trkpt lat="45.71595" lon="6.9498">
        <ele>1456.212524</ele>
        <time>2010-06-15T14:30:47.255Z</time>
      </trkpt>
      <trkpt lat="45.71344" lon="6.95081">
        <ele>1459.351929</ele>
        <time>2010-06-15T14:30:47.255Z</time>
      </trkpt>
      <trkpt lat="45.71268" lon="6.9525">
        <ele>1477.335083</ele>
        <time>2010-06-15T14:30:47.255Z</time>
      </trkpt>
      <trkpt lat="45.71032" lon="6.95399">
        <ele>1483.552979</ele>
        <time>2010-06-15T14:30:47.255Z</time>
      </trkpt>
      <trkpt lat="45.70699" lon="6.95694">
        <ele>1491.295044</ele>
        <time>2010-06-15T14:30:47.255Z</time>
      </trkpt>
      <trkpt lat="45.70695" lon="6.95667">
        <ele>1488.216553</ele>
        <time>2010-06-15T14:30:47.255Z</time>
      </trkpt>
      <trkpt lat="45.70618" lon="6.95628">
        <ele>1488.033569</ele>
        <time>2010-06-15T14:30:47.255Z</time>
      </trkpt>
      <trkpt lat="45.70554" lon="6.95554">
        <ele>1492.81897</ele>
        <time>2010-06-15T14:30:47.255Z</time>
      </trkpt>
      <trkpt lat="45.70439" lon="6.95552">
        <ele>1506.26062</ele>
        <time>2010-06-15T14:30:47.255Z</time>
      </trkpt>
      <trkpt lat="45.7038" lon="6.95588">
        <ele>1509.095337</ele>
        <time>2010-06-15T14:30:47.255Z</time>
      </trkpt>
      <trkpt lat="45.70331" lon="6.95585">
        <ele>1528.480591</ele>
        <time>2010-06-15T14:30:47.255Z</time>
      </trkpt>
      <trkpt lat="45.70185" lon="6.95676">
        <ele>1535.430054</ele>
        <time>2010-06-15T14:30:47.255Z</time>
      </trkpt>
      <trkpt lat="45.70021" lon="6.95859">
        <ele>1522.262573</ele>
        <time>2010-06-15T14:30:47.255Z</time>
      </trkpt>
      <trkpt lat="45.69942" lon="6.95856">
        <ele>1539.453369</ele>
        <time>2010-06-15T14:30:47.255Z</time>
      </trkpt>
      <trkpt lat="45.69831" lon="6.95911">
        <ele>1548.780151</ele>
        <time>2010-06-15T14:30:47.255Z</time>
      </trkpt>
      <trkpt lat="45.6975" lon="6.96089">
        <ele>1521.622559</ele>
        <time>2010-06-15T14:30:47.255Z</time>
      </trkpt>
      <trkpt lat="45.69688" lon="6.96172">
        <ele>1540.764038</ele>
        <time>2010-06-15T14:30:47.255Z</time>
      </trkpt>
      <trkpt lat="45.69642" lon="6.96037">
        <ele>1553.29126</ele>
        <time>2010-06-15T14:30:47.255Z</time>
      </trkpt>
      <trkpt lat="45.69597" lon="6.96002">
        <ele>1573.468994</ele>
        <time>2010-06-15T14:30:47.255Z</time>
      </trkpt>
      <trkpt lat="45.69562" lon="6.96029">
        <ele>1581.607178</ele>
        <time>2010-06-15T14:30:47.255Z</time>
      </trkpt>
      <trkpt lat="45.69563" lon="6.96083">
        <ele>1572.859375</ele>
        <time>2010-06-15T14:30:47.255Z</time>
      </trkpt>
      <trkpt lat="45.69462" lon="6.96095">
        <ele>1589.623413</ele>
        <time>2010-06-15T14:30:47.255Z</time>
      </trkpt>
      <trkpt lat="45.69427" lon="6.96073">
        <ele>1601.327759</ele>
        <time>2010-06-15T14:30:47.255Z</time>
      </trkpt>
      <trkpt lat="45.69379" lon="6.96108">
        <ele>1616.263062</ele>
        <time>2010-06-15T14:30:47.255Z</time>
      </trkpt>
      <trkpt lat="45.69244" lon="6.96071">
        <ele>1632.325928</ele>
        <time>2010-06-15T14:30:47.255Z</time>
      </trkpt>
      <trkpt lat="45.69006" lon="6.96063">
        <ele>1609.49646</ele>
        <time>2010-06-15T14:30:47.255Z</time>
      </trkpt>
      <trkpt lat="45.6896" lon="6.96108">
        <ele>1608.79541</ele>
        <time>2010-06-15T14:30:47.255Z</time>
      </trkpt>
      <trkpt lat="45.69006" lon="6.96203">
        <ele>1599.499023</ele>
        <time>2010-06-15T14:30:47.255Z</time>
      </trkpt>
      <trkpt lat="45.69002" lon="6.96269">
        <ele>1610.715576</ele>
        <time>2010-06-15T14:30:47.255Z</time>
      </trkpt>
      <trkpt lat="45.68875" lon="6.96286">
        <ele>1606.570313</ele>
        <time>2010-06-15T14:30:47.255Z</time>
      </trkpt>
      <trkpt lat="45.68808" lon="6.96225">
        <ele>1612.056641</ele>
        <time>2010-06-15T14:30:47.255Z</time>
      </trkpt>
      <trkpt lat="45.68793" lon="6.96236">
        <ele>1615.25708</ele>
        <time>2010-06-15T14:30:47.255Z</time>
      </trkpt>
      <trkpt lat="45.68802" lon="6.96277">
        <ele>1614.251343</ele>
        <time>2010-06-15T14:30:47.255Z</time>
      </trkpt>
      <trkpt lat="45.68743" lon="6.96287">
        <ele>1636.227417</ele>
        <time>2010-06-15T14:30:47.255Z</time>
      </trkpt>
      <trkpt lat="45.68696" lon="6.96239">
        <ele>1645.554199</ele>
        <time>2010-06-15T14:30:47.255Z</time>
      </trkpt>
      <trkpt lat="45.68686" lon="6.96199">
        <ele>1638.360962</ele>
        <time>2010-06-15T14:30:47.255Z</time>
      </trkpt>
      <trkpt lat="45.68632" lon="6.9615">
        <ele>1645.432251</ele>
        <time>2010-06-15T14:30:47.255Z</time>
      </trkpt>
      <trkpt lat="45.68559" lon="6.96126">
        <ele>1662.37915</ele>
        <time>2010-06-15T14:30:47.255Z</time>
      </trkpt>
      <trkpt lat="45.68538" lon="6.96088">
        <ele>1663.232544</ele>
        <time>2010-06-15T14:30:47.255Z</time>
      </trkpt>
      <trkpt lat="45.68472" lon="6.96173">
        <ele>1704.593994</ele>
        <time>2010-06-15T14:30:47.255Z</time>
      </trkpt>
      <trkpt lat="45.685" lon="6.96234">
        <ele>1713.036987</ele>
        <time>2010-06-15T14:30:47.255Z</time>
      </trkpt>
      <trkpt lat="45.68469" lon="6.96202">
        <ele>1715.018188</ele>
        <time>2010-06-15T14:30:47.255Z</time>
      </trkpt>
      <trkpt lat="45.68458" lon="6.96229">
        <ele>1728.398926</ele>
        <time>2010-06-15T14:30:47.255Z</time>
      </trkpt>
      <trkpt lat="45.68411" lon="6.96159">
        <ele>1720.077759</ele>
        <time>2010-06-15T14:30:47.255Z</time>
      </trkpt>
      <trkpt lat="45.68343" lon="6.96175">
        <ele>1737.695313</ele>
        <time>2010-06-15T14:30:47.255Z</time>
      </trkpt>
      <trkpt lat="45.68328" lon="6.96244">
        <ele>1747.357422</ele>
        <time>2010-06-15T14:30:47.255Z</time>
      </trkpt>
      <trkpt lat="45.6834" lon="6.96289">
        <ele>1756.348999</ele>
        <time>2010-06-15T14:30:47.255Z</time>
      </trkpt>
      <trkpt lat="45.6828" lon="6.96443">
        <ele>1766.651367</ele>
        <time>2010-06-15T14:30:47.255Z</time>
      </trkpt>
      <trkpt lat="45.68169" lon="6.96614">
        <ele>1781.55603</ele>
        <time>2010-06-15T14:30:47.255Z</time>
      </trkpt>
      <trkpt lat="45.68111" lon="6.96627">
        <ele>1797.862793</ele>
        <time>2010-06-15T14:30:47.255Z</time>
      </trkpt>
      <trkpt lat="45.68123" lon="6.96646">
        <ele>1801.032715</ele>
        <time>2010-06-15T14:30:47.255Z</time>
      </trkpt>
      <trkpt lat="45.68095" lon="6.96674">
        <ele>1818.375732</ele>
        <time>2010-06-15T14:30:47.255Z</time>
      </trkpt>
      <trkpt lat="45.6803" lon="6.9665">
        <ele>1831.299438</ele>
        <time>2010-06-15T14:30:47.255Z</time>
      </trkpt>
      <trkpt lat="45.67969" lon="6.96676">
        <ele>1844.2229</ele>
        <time>2010-06-15T14:30:47.255Z</time>
      </trkpt>
      <trkpt lat="45.67942" lon="6.96664">
        <ele>1847.209839</ele>
        <time>2010-06-15T14:30:47.255Z</time>
      </trkpt>
      <trkpt lat="45.67907" lon="6.96726">
        <ele>1851.78186</ele>
        <time>2010-06-15T14:30:47.255Z</time>
      </trkpt>
      <trkpt lat="45.67871" lon="6.96703">
        <ele>1862.328003</ele>
        <time>2010-06-15T14:30:47.255Z</time>
      </trkpt>
      <trkpt lat="45.67823" lon="6.96622">
        <ele>1869.155518</ele>
        <time>2010-06-15T14:30:47.255Z</time>
      </trkpt>
      <trkpt lat="45.67817" lon="6.96647">
        <ele>1875.70874</ele>
        <time>2010-06-15T14:30:47.255Z</time>
      </trkpt>
      <trkpt lat="45.67718" lon="6.96504">
        <ele>1896.099731</ele>
        <time>2010-06-15T14:30:47.255Z</time>
      </trkpt>
      <trkpt lat="45.67712" lon="6.96559">
        <ele>1924.324341</ele>
        <time>2010-06-15T14:30:47.255Z</time>
      </trkpt>
      <trkpt lat="45.67735" lon="6.96691">
        <ele>1955.474854</ele>
        <time>2010-06-15T14:30:47.255Z</time>
      </trkpt>
      <trkpt lat="45.67653" lon="6.96561">
        <ele>1963.460571</ele>
        <time>2010-06-15T14:30:47.255Z</time>
      </trkpt>
      <trkpt lat="45.67615" lon="6.96532">
        <ele>1978.182495</ele>
        <time>2010-06-15T14:30:47.255Z</time>
      </trkpt>
      <trkpt lat="45.6766" lon="6.96719">
        <ele>2028.13916</ele>
        <time>2010-06-15T14:30:47.255Z</time>
      </trkpt>
      <trkpt lat="45.67596" lon="6.96679">
        <ele>2048.04248</ele>
        <time>2010-06-15T14:30:47.255Z</time>
      </trkpt>
      <trkpt lat="45.67624" lon="6.9677">
        <ele>2070.628174</ele>
        <time>2010-06-15T14:30:47.255Z</time>
      </trkpt>
      <trkpt lat="45.67612" lon="6.96795">
        <ele>2091.50708</ele>
        <time>2010-06-15T14:30:47.264Z</time>
      </trkpt>
      <trkpt lat="45.67652" lon="6.96942">
        <ele>2122.535889</ele>
        <time>2010-06-15T14:30:47.264Z</time>
      </trkpt>
      <trkpt lat="45.67724" lon="6.97072">
        <ele>2147.89502</ele>
        <time>2010-06-15T14:30:47.264Z</time>
      </trkpt>
      <trkpt lat="45.67769" lon="6.97278">
        <ele>2158.380127</ele>
        <time>2010-06-15T14:30:47.264Z</time>
      </trkpt>
      <trkpt lat="45.67811" lon="6.97362">
        <ele>2143.018311</ele>
        <time>2010-06-15T14:30:47.264Z</time>
      </trkpt>
      <trkpt lat="45.67787" lon="6.97412">
        <ele>2149.754395</ele>
        <time>2010-06-15T14:30:47.264Z</time>
      </trkpt>
      <trkpt lat="45.67812" lon="6.97467">
        <ele>2146.767334</ele>
        <time>2010-06-15T14:30:47.264Z</time>
      </trkpt>
      <trkpt lat="45.67804" lon="6.97544">
        <ele>2144.847168</ele>
        <time>2010-06-15T14:30:47.264Z</time>
      </trkpt>
      <trkpt lat="45.67819" lon="6.97606">
        <ele>2142.3479</ele>
        <time>2010-06-15T14:30:47.264Z</time>
      </trkpt>
      <trkpt lat="45.67869" lon="6.97583">
        <ele>2146.310303</ele>
        <time>2010-06-15T14:30:47.264Z</time>
      </trkpt>
      <trkpt lat="45.67914" lon="6.97606">
        <ele>2152.253906</ele>
        <time>2010-06-15T14:30:47.264Z</time>
      </trkpt>
      <trkpt lat="45.67945" lon="6.97695">
        <ele>2170.450195</ele>
        <time>2010-06-15T14:30:47.264Z</time>
      </trkpt>
      <trkpt lat="45.67981" lon="6.97712">
        <ele>2183.983398</ele>
        <time>2010-06-15T14:30:47.264Z</time>
      </trkpt>
      <trkpt lat="45.67981" lon="6.97821">
        <ele>2193.310303</ele>
        <time>2010-06-15T14:30:47.264Z</time>
      </trkpt>
      <trkpt lat="45.68015" lon="6.97761">
        <ele>2198.583496</ele>
        <time>2010-06-15T14:30:47.264Z</time>
      </trkpt>
      <trkpt lat="45.68023" lon="6.97808">
        <ele>2207.513916</ele>
        <time>2010-06-15T14:30:47.264Z</time>
      </trkpt>
      <trkpt lat="45.6801" lon="6.9788">
        <ele>2218.63916</ele>
        <time>2010-06-15T14:30:47.264Z</time>
      </trkpt>
      <trkpt lat="45.67909" lon="6.98015">
        <ele>2263.627686</ele>
        <time>2010-06-15T14:30:47.264Z</time>
      </trkpt>
      <trkpt lat="45.67924" lon="6.98024">
        <ele>2272.101074</ele>
        <time>2010-06-15T14:30:47.264Z</time>
      </trkpt>
      <trkpt lat="45.67903" lon="6.98045">
        <ele>2281.61084</ele>
        <time>2010-06-15T14:30:47.264Z</time>
      </trkpt>
      <trkpt lat="45.67917" lon="6.98068">
        <ele>2296.57666</ele>
        <time>2010-06-15T14:30:47.264Z</time>
      </trkpt>
      <trkpt lat="45.67949" lon="6.9806">
        <ele>2302.154297</ele>
        <time>2010-06-15T14:30:47.264Z</time>
      </trkpt>
      <trkpt lat="45.67928" lon="6.9813">
        <ele>2327.727051</ele>
        <time>2010-06-15T14:30:47.264Z</time>
      </trkpt>
      <trkpt lat="45.67886" lon="6.98107">
        <ele>2316.114258</ele>
        <time>2010-06-15T14:30:47.264Z</time>
      </trkpt>
      <trkpt lat="45.67854" lon="6.98134">
        <ele>2339.096191</ele>
        <time>2010-06-15T14:30:47.264Z</time>
      </trkpt>
      <trkpt lat="45.67877" lon="6.98151">
        <ele>2344.97876</ele>
        <time>2010-06-15T14:30:47.264Z</time>
      </trkpt>
      <trkpt lat="45.67885" lon="6.98191">
        <ele>2363.876465</ele>
        <time>2010-06-15T14:30:47.264Z</time>
      </trkpt>
      <trkpt lat="45.67853" lon="6.98188">
        <ele>2369.576172</ele>
        <time>2010-06-15T14:30:47.264Z</time>
      </trkpt>
      <trkpt lat="45.67865" lon="6.9821">
        <ele>2380.061279</ele>
        <time>2010-06-15T14:30:47.264Z</time>
      </trkpt>
      <trkpt lat="45.67844" lon="6.98218">
        <ele>2389.205322</ele>
        <time>2010-06-15T14:30:47.264Z</time>
      </trkpt>
      <trkpt lat="45.67867" lon="6.98239">
        <ele>2395.514648</ele>
        <time>2010-06-15T14:30:47.264Z</time>
      </trkpt>
      <trkpt lat="45.67824" lon="6.98259">
        <ele>2411.882324</ele>
        <time>2010-06-15T14:30:47.264Z</time>
      </trkpt>
      <trkpt lat="45.67878" lon="6.98293">
        <ele>2421.026367</ele>
        <time>2010-06-15T14:30:47.264Z</time>
      </trkpt>
      <trkpt lat="45.67805" lon="6.98346">
        <ele>2450.927246</ele>
        <time>2010-06-15T14:30:47.264Z</time>
      </trkpt>
      <trkpt lat="45.67817" lon="6.98369">
        <ele>2458.608154</ele>
        <time>2010-06-15T14:30:47.264Z</time>
      </trkpt>
      <trkpt lat="45.67782" lon="6.98415">
        <ele>2475.463623</ele>
        <time>2010-06-15T14:30:47.264Z</time>
      </trkpt>
      <trkpt lat="45.67719" lon="6.98429">
        <ele>2475.585693</ele>
        <time>2010-06-15T14:30:47.264Z</time>
      </trkpt>
      <trkpt lat="45.67712" lon="6.98479">
        <ele>2485.887695</ele>
        <time>2010-06-15T14:30:47.264Z</time>
      </trkpt>
      <trkpt lat="45.67652" lon="6.98505">
        <ele>2503.99292</ele>
        <time>2010-06-15T14:30:47.264Z</time>
      </trkpt>
      <trkpt lat="45.67642" lon="6.98558">
        <ele>2503.139648</ele>
        <time>2010-06-15T14:30:47.264Z</time>
      </trkpt>
      <trkpt lat="45.67591" lon="6.98562">
        <ele>2501.79834</ele>
        <time>2010-06-15T14:30:47.264Z</time>
      </trkpt>
      <trkpt lat="45.67546" lon="6.98607">
        <ele>2483.815186</ele>
        <time>2010-06-15T14:30:47.264Z</time>
      </trkpt>
      <trkpt lat="45.67692" lon="6.98815">
        <ele>2466.411133</ele>
        <time>2010-06-15T14:30:47.264Z</time>
      </trkpt>
      <trkpt lat="45.67722" lon="6.98823">
        <ele>2472.720459</ele>
        <time>2010-06-15T14:30:47.264Z</time>
      </trkpt>
      <trkpt lat="45.67739" lon="6.98875">
        <ele>2469.977295</ele>
        <time>2010-06-15T14:30:47.264Z</time>
      </trkpt>
      <trkpt lat="45.67815" lon="6.98913">
        <ele>2476.530518</ele>
        <time>2010-06-15T14:30:47.264Z</time>
      </trkpt>
      <trkpt lat="45.67956" lon="6.99096">
        <ele>2482.443604</ele>
        <time>2010-06-15T14:30:47.264Z</time>
      </trkpt>
      <trkpt lat="45.67989" lon="6.99161">
        <ele>2482.016846</ele>
        <time>2010-06-15T14:30:47.264Z</time>
      </trkpt>
      <trkpt lat="45.68009" lon="6.99259">
        <ele>2487.960449</ele>
        <time>2010-06-15T14:30:47.264Z</time>
      </trkpt>
      <trkpt lat="45.6805" lon="6.99312">
        <ele>2497.592285</ele>
        <time>2010-06-15T14:30:47.264Z</time>
      </trkpt>
      <trkpt lat="45.6804" lon="6.99373">
        <ele>2499.360107</ele>
        <time>2010-06-15T14:30:47.264Z</time>
      </trkpt>
      <trkpt lat="45.68066" lon="6.99455">
        <ele>2501.950684</ele>
        <time>2010-06-15T14:30:47.264Z</time>
      </trkpt>
      <trkpt lat="45.68172" lon="6.99649">
        <ele>2500.152344</ele>
        <time>2010-06-15T14:30:47.264Z</time>
      </trkpt>
      <trkpt lat="45.68149" lon="6.99823">
        <ele>2498.811523</ele>
        <time>2010-06-15T14:30:47.264Z</time>
      </trkpt>
      <trkpt lat="45.68123" lon="6.99883">
        <ele>2509.387939</ele>
        <time>2010-06-15T14:30:47.264Z</time>
      </trkpt>
      <trkpt lat="45.68144" lon="6.99926">
        <ele>2507.955322</ele>
        <time>2010-06-15T14:30:47.264Z</time>
      </trkpt>
      <trkpt lat="45.68114" lon="6.99923">
        <ele>2516.733643</ele>
        <time>2010-06-15T14:30:47.264Z</time>
      </trkpt>
      <trkpt lat="45.6812" lon="6.99994">
        <ele>2525.481445</ele>
        <time>2010-06-15T14:30:47.264Z</time>
      </trkpt>
      <trkpt lat="45.68161" lon="7.00101">
        <ele>2528.01123</ele>
        <time>2010-06-15T14:30:47.264Z</time>
      </trkpt>
      <trkpt lat="45.68154" lon="7.00197">
        <ele>2559.161865</ele>
        <time>2010-06-15T14:30:47.264Z</time>
      </trkpt>
      <trkpt lat="45.68173" lon="7.00312">
        <ele>2587.690918</ele>
        <time>2010-06-15T14:30:47.264Z</time>
      </trkpt>
      <trkpt lat="45.68212" lon="7.00293">
        <ele>2570.988037</ele>
        <time>2010-06-15T14:30:47.264Z</time>
      </trkpt>
      <trkpt lat="45.68249" lon="7.00352">
        <ele>2585.313721</ele>
        <time>2010-06-15T14:30:47.264Z</time>
      </trkpt>
      <trkpt lat="45.68275" lon="7.00497">
        <ele>2623.809814</ele>
        <time>2010-06-15T14:30:47.264Z</time>
      </trkpt>
      <trkpt lat="45.68239" lon="7.00569">
        <ele>2651.333252</ele>
        <time>2010-06-15T14:30:47.264Z</time>
      </trkpt>
      <trkpt lat="45.68262" lon="7.00685">
        <ele>2679.466553</ele>
        <time>2010-06-15T14:30:47.264Z</time>
      </trkpt>
      <trkpt lat="45.68224" lon="7.00794">
        <ele>2694.523438</ele>
        <time>2010-06-15T14:30:47.264Z</time>
      </trkpt>
      <trkpt lat="45.68251" lon="7.01061">
        <ele>2738.932861</ele>
        <time>2010-06-15T14:30:47.264Z</time>
      </trkpt>
      <trkpt lat="45.68216" lon="7.01181">
        <ele>2759.476318</ele>
        <time>2010-06-15T14:30:47.264Z</time>
      </trkpt>
      <trkpt lat="45.68243" lon="7.01217">
        <ele>2762.493896</ele>
        <time>2010-06-15T14:30:47.264Z</time>
      </trkpt>
      <trkpt lat="45.6831" lon="7.01209">
        <ele>2779.013916</ele>
        <time>2010-06-15T14:30:47.264Z</time>
      </trkpt>
      <trkpt lat="45.68287" lon="7.01315">
        <ele>2812.572266</ele>
        <time>2010-06-15T14:30:47.264Z</time>
      </trkpt>
      <trkpt lat="45.68333" lon="7.01352">
        <ele>2850.398193</ele>
        <time>2010-06-15T14:30:47.264Z</time>
      </trkpt>
      <trkpt lat="45.68346" lon="7.014">
        <ele>2844.881104</ele>
        <time>2010-06-15T14:30:47.264Z</time>
      </trkpt>
      <trkpt lat="45.68422" lon="7.01453">
        <ele>2810.073242</ele>
        <time>2010-06-15T14:30:47.264Z</time>
      </trkpt>
      <trkpt lat="45.68403" lon="7.01462">
        <ele>2803.123535</ele>
        <time>2010-06-15T14:30:47.264Z</time>
      </trkpt>
      <trkpt lat="45.68444" lon="7.01496">
        <ele>2785.719482</ele>
        <time>2010-06-15T14:30:47.264Z</time>
      </trkpt>
      <trkpt lat="45.68422" lon="7.01516">
        <ele>2772.186279</ele>
        <time>2010-06-15T14:30:47.264Z</time>
      </trkpt>
      <trkpt lat="45.68445" lon="7.01569">
        <ele>2742.499023</ele>
        <time>2010-06-15T14:30:47.264Z</time>
      </trkpt>
      <trkpt lat="45.68443" lon="7.01614">
        <ele>2719.456055</ele>
        <time>2010-06-15T14:30:47.264Z</time>
      </trkpt>
      <trkpt lat="45.6851" lon="7.01757">
        <ele>2666.817139</ele>
        <time>2010-06-15T14:30:47.264Z</time>
      </trkpt>
      <trkpt lat="45.68549" lon="7.01779">
        <ele>2659.13623</ele>
        <time>2010-06-15T14:30:47.264Z</time>
      </trkpt>
      <trkpt lat="45.68552" lon="7.01828">
        <ele>2649.778809</ele>
        <time>2010-06-15T14:30:47.264Z</time>
      </trkpt>
      <trkpt lat="45.6857" lon="7.01799">
        <ele>2651.76001</ele>
        <time>2010-06-15T14:30:47.264Z</time>
      </trkpt>
      <trkpt lat="45.68579" lon="7.0184">
        <ele>2642.158691</ele>
        <time>2010-06-15T14:30:47.264Z</time>
      </trkpt>
      <trkpt lat="45.68593" lon="7.0181">
        <ele>2643.37793</ele>
        <time>2010-06-15T14:30:47.264Z</time>
      </trkpt>
      <trkpt lat="45.68663" lon="7.01903">
        <ele>2583.484863</ele>
        <time>2010-06-15T14:30:47.264Z</time>
      </trkpt>
      <trkpt lat="45.68705" lon="7.01885">
        <ele>2559.527588</ele>
        <time>2010-06-15T14:30:47.264Z</time>
      </trkpt>
      <trkpt lat="45.68781" lon="7.01919">
        <ele>2530.602051</ele>
        <time>2010-06-15T14:30:47.264Z</time>
      </trkpt>
      <trkpt lat="45.68842" lon="7.02019">
        <ele>2488.813965</ele>
        <time>2010-06-15T14:30:47.264Z</time>
      </trkpt>
      <trkpt lat="45.68877" lon="7.02029">
        <ele>2477.719238</ele>
        <time>2010-06-15T14:30:47.264Z</time>
      </trkpt>
      <trkpt lat="45.68891" lon="7.02069">
        <ele>2459.034912</ele>
        <time>2010-06-15T14:30:47.264Z</time>
      </trkpt>
      <trkpt lat="45.69079" lon="7.02296">
        <ele>2404.628174</ele>
        <time>2010-06-15T14:30:47.264Z</time>
      </trkpt>
      <trkpt lat="45.69083" lon="7.02351">
        <ele>2387.345947</ele>
        <time>2010-06-15T14:30:47.264Z</time>
      </trkpt>
      <trkpt lat="45.69155" lon="7.02552">
        <ele>2378.598145</ele>
        <time>2010-06-15T14:30:47.264Z</time>
      </trkpt>
      <trkpt lat="45.69166" lon="7.02643">
        <ele>2362.41333</ele>
        <time>2010-06-15T14:30:47.264Z</time>
      </trkpt>
      <trkpt lat="45.69204" lon="7.02712">
        <ele>2351.135742</ele>
        <time>2010-06-15T14:30:47.264Z</time>
      </trkpt>
      <trkpt lat="45.69313" lon="7.02808">
        <ele>2319.924072</ele>
        <time>2010-06-15T14:30:47.264Z</time>
      </trkpt>
      <trkpt lat="45.69327" lon="7.02883">
        <ele>2290.633057</ele>
        <time>2010-06-15T14:30:47.264Z</time>
      </trkpt>
      <trkpt lat="45.69418" lon="7.02984">
        <ele>2277.282715</ele>
        <time>2010-06-15T14:30:47.264Z</time>
      </trkpt>
      <trkpt lat="45.69432" lon="7.03056">
        <ele>2269.479736</ele>
        <time>2010-06-15T14:30:47.264Z</time>
      </trkpt>
      <trkpt lat="45.69396" lon="7.03099">
        <ele>2266.249023</ele>
        <time>2010-06-15T14:30:47.264Z</time>
      </trkpt>
      <trkpt lat="45.69395" lon="7.03133">
        <ele>2262.865723</ele>
        <time>2010-06-15T14:30:47.264Z</time>
      </trkpt>
      <trkpt lat="45.69407" lon="7.03424">
        <ele>2225.253418</ele>
        <time>2010-06-15T14:30:47.264Z</time>
      </trkpt>
      <trkpt lat="45.69507" lon="7.03807">
        <ele>2145.121338</ele>
        <time>2010-06-15T14:30:47.264Z</time>
      </trkpt>
      <trkpt lat="45.69687" lon="7.04031">
        <ele>2105.527832</ele>
        <time>2010-06-15T14:30:47.264Z</time>
      </trkpt>
      <trkpt lat="45.69764" lon="7.04051">
        <ele>2088.276123</ele>
        <time>2010-06-15T14:30:47.264Z</time>
      </trkpt>
      <trkpt lat="45.69905" lon="7.04037">
        <ele>2044.598389</ele>
        <time>2010-06-15T14:30:47.264Z</time>
      </trkpt>
      <trkpt lat="45.70009" lon="7.04102">
        <ele>2025.639771</ele>
        <time>2010-06-15T14:30:47.264Z</time>
      </trkpt>
      <trkpt lat="45.69891" lon="7.04097">
        <ele>2052.249023</ele>
        <time>2010-06-15T14:30:47.264Z</time>
      </trkpt>
      <trkpt lat="45.69818" lon="7.04159">
        <ele>2081.05249</ele>
        <time>2010-06-15T14:30:47.264Z</time>
      </trkpt>
      <trkpt lat="45.69661" lon="7.04199">
        <ele>2122.99292</ele>
        <time>2010-06-15T14:30:47.264Z</time>
      </trkpt>
      <trkpt lat="45.69557" lon="7.04265">
        <ele>2156.520996</ele>
        <time>2010-06-15T14:30:47.264Z</time>
      </trkpt>
      <trkpt lat="45.69432" lon="7.04271">
        <ele>2183.221436</ele>
        <time>2010-06-15T14:30:47.264Z</time>
      </trkpt>
      <trkpt lat="45.69376" lon="7.04298">
        <ele>2210.500977</ele>
        <time>2010-06-15T14:30:47.264Z</time>
      </trkpt>
      <trkpt lat="45.69301" lon="7.04416">
        <ele>2257.592529</ele>
        <time>2010-06-15T14:30:47.264Z</time>
      </trkpt>
      <trkpt lat="45.69311" lon="7.0445">
        <ele>2257.409912</ele>
        <time>2010-06-15T14:30:47.264Z</time>
      </trkpt>
      <trkpt lat="45.69279" lon="7.0445">
        <ele>2272.55835</ele>
        <time>2010-06-15T14:30:47.264Z</time>
      </trkpt>
      <trkpt lat="45.6929" lon="7.04483">
        <ele>2277.038818</ele>
        <time>2010-06-15T14:30:47.264Z</time>
      </trkpt>
      <trkpt lat="45.69267" lon="7.04479">
        <ele>2287.462891</ele>
        <time>2010-06-15T14:30:47.264Z</time>
      </trkpt>
      <trkpt lat="45.6928" lon="7.04518">
        <ele>2294.869629</ele>
        <time>2010-06-15T14:30:47.264Z</time>
      </trkpt>
      <trkpt lat="45.69214" lon="7.0449">
        <ele>2316.662842</ele>
        <time>2010-06-15T14:30:47.264Z</time>
      </trkpt>
      <trkpt lat="45.69212" lon="7.04521">
        <ele>2328.611084</ele>
        <time>2010-06-15T14:30:47.264Z</time>
      </trkpt>
      <trkpt lat="45.69183" lon="7.04558">
        <ele>2352.994873</ele>
        <time>2010-06-15T14:30:47.264Z</time>
      </trkpt>
      <trkpt lat="45.69199" lon="7.04605">
        <ele>2356.439209</ele>
        <time>2010-06-15T14:30:47.264Z</time>
      </trkpt>
      <trkpt lat="45.69103" lon="7.04613">
        <ele>2397.373779</ele>
        <time>2010-06-15T14:30:47.264Z</time>
      </trkpt>
      <trkpt lat="45.69099" lon="7.04648">
        <ele>2410.571777</ele>
        <time>2010-06-15T14:30:47.264Z</time>
      </trkpt>
      <trkpt lat="45.69049" lon="7.0464">
        <ele>2427.152832</ele>
        <time>2010-06-15T14:30:47.264Z</time>
      </trkpt>
      <trkpt lat="45.69027" lon="7.04666">
        <ele>2447.391602</ele>
        <time>2010-06-15T14:30:47.264Z</time>
      </trkpt>
      <trkpt lat="45.69048" lon="7.047">
        <ele>2452.542725</ele>
        <time>2010-06-15T14:30:47.264Z</time>
      </trkpt>
      <trkpt lat="45.69022" lon="7.04709">
        <ele>2468.758057</ele>
        <time>2010-06-15T14:30:47.264Z</time>
      </trkpt>
      <trkpt lat="45.69042" lon="7.04729">
        <ele>2469.093506</ele>
        <time>2010-06-15T14:30:47.264Z</time>
      </trkpt>
      <trkpt lat="45.69002" lon="7.0474">
        <ele>2485.735352</ele>
        <time>2010-06-15T14:30:47.264Z</time>
      </trkpt>
      <trkpt lat="45.69" lon="7.04779">
        <ele>2499.390381</ele>
        <time>2010-06-15T14:30:47.264Z</time>
      </trkpt>
      <trkpt lat="45.68935" lon="7.04834">
        <ele>2537.307617</ele>
        <time>2010-06-15T14:30:47.264Z</time>
      </trkpt>
      <trkpt lat="45.68958" lon="7.0486">
        <ele>2541.574707</ele>
        <time>2010-06-15T14:30:47.264Z</time>
      </trkpt>
      <trkpt lat="45.68913" lon="7.04915">
        <ele>2580.680664</ele>
        <time>2010-06-15T14:30:47.264Z</time>
      </trkpt>
      <trkpt lat="45.68943" lon="7.0494">
        <ele>2585.588135</ele>
        <time>2010-06-15T14:30:47.264Z</time>
      </trkpt>
      <trkpt lat="45.68908" lon="7.04957">
        <ele>2603.144287</ele>
        <time>2010-06-15T14:30:47.264Z</time>
      </trkpt>
      <trkpt lat="45.68929" lon="7.04974">
        <ele>2607.625</ele>
        <time>2010-06-15T14:30:47.264Z</time>
      </trkpt>
      <trkpt lat="45.6889" lon="7.0502">
        <ele>2641.70166</ele>
        <time>2010-06-15T14:30:47.264Z</time>
      </trkpt>
      <trkpt lat="45.68953" lon="7.05018">
        <ele>2625.913086</ele>
        <time>2010-06-15T14:30:47.264Z</time>
      </trkpt>
      <trkpt lat="45.6896" lon="7.05055">
        <ele>2641.945313</ele>
        <time>2010-06-15T14:30:47.264Z</time>
      </trkpt>
      <trkpt lat="45.68834" lon="7.05134">
        <ele>2719.303467</ele>
        <time>2010-06-15T14:30:47.264Z</time>
      </trkpt>
      <trkpt lat="45.68807" lon="7.05179">
        <ele>2755.27002</ele>
        <time>2010-06-15T14:30:47.264Z</time>
      </trkpt>
      <trkpt lat="45.68777" lon="7.05177">
        <ele>2779.379883</ele>
        <time>2010-06-15T14:30:47.264Z</time>
      </trkpt>
      <trkpt lat="45.68785" lon="7.052">
        <ele>2783.006836</ele>
        <time>2010-06-15T14:30:47.264Z</time>
      </trkpt>
      <trkpt lat="45.68765" lon="7.05221">
        <ele>2810.286377</ele>
        <time>2010-06-15T14:30:47.264Z</time>
      </trkpt>
      <trkpt lat="45.68735" lon="7.05194">
        <ele>2821.929688</ele>
        <time>2010-06-15T14:30:47.264Z</time>
      </trkpt>
      <trkpt lat="45.68716" lon="7.05299">
        <ele>2817.571289</ele>
        <time>2010-06-15T14:30:47.264Z</time>
      </trkpt>
      <trkpt lat="45.68678" lon="7.05308">
        <ele>2808.152832</ele>
        <time>2010-06-15T14:30:47.264Z</time>
      </trkpt>
      <trkpt lat="45.68685" lon="7.05343">
        <ele>2801.020508</ele>
        <time>2010-06-15T14:30:47.264Z</time>
      </trkpt>
      <trkpt lat="45.68659" lon="7.0538">
        <ele>2781.422119</ele>
        <time>2010-06-15T14:30:47.264Z</time>
      </trkpt>
      <trkpt lat="45.68587" lon="7.05375">
        <ele>2750.911377</ele>
        <time>2010-06-15T14:30:47.264Z</time>
      </trkpt>
      <trkpt lat="45.68541" lon="7.05264">
        <ele>2763.072998</ele>
        <time>2010-06-15T14:30:47.264Z</time>
      </trkpt>
      <trkpt lat="45.68438" lon="7.05184">
        <ele>2734.75708</ele>
        <time>2010-06-15T14:30:47.264Z</time>
      </trkpt>
      <trkpt lat="45.68348" lon="7.05196">
        <ele>2704.155273</ele>
        <time>2010-06-15T14:30:47.264Z</time>
      </trkpt>
      <trkpt lat="45.68339" lon="7.05217">
        <ele>2693.151855</ele>
        <time>2010-06-15T14:30:47.264Z</time>
      </trkpt>
      <trkpt lat="45.68292" lon="7.05172">
        <ele>2645.054443</ele>
        <time>2010-06-15T14:30:47.264Z</time>
      </trkpt>
      <trkpt lat="45.68292" lon="7.05207">
        <ele>2649.504395</ele>
        <time>2010-06-15T14:30:47.264Z</time>
      </trkpt>
      <trkpt lat="45.68254" lon="7.05216">
        <ele>2606.649658</ele>
        <time>2010-06-15T14:30:47.264Z</time>
      </trkpt>
      <trkpt lat="45.68226" lon="7.05287">
        <ele>2582.448242</ele>
        <time>2010-06-15T14:30:47.264Z</time>
      </trkpt>
      <trkpt lat="45.68213" lon="7.05269">
        <ele>2566.507324</ele>
        <time>2010-06-15T14:30:47.264Z</time>
      </trkpt>
      <trkpt lat="45.68212" lon="7.05301">
        <ele>2570.652832</ele>
        <time>2010-06-15T14:30:47.264Z</time>
      </trkpt>
      <trkpt lat="45.68188" lon="7.0529">
        <ele>2543.98291</ele>
        <time>2010-06-15T14:30:47.264Z</time>
      </trkpt>
      <trkpt lat="45.68157" lon="7.05322">
        <ele>2531.821289</ele>
        <time>2010-06-15T14:30:47.264Z</time>
      </trkpt>
      <trkpt lat="45.68152" lon="7.05429">
        <ele>2543.4646</ele>
        <time>2010-06-15T14:30:47.264Z</time>
      </trkpt>
      <trkpt lat="45.6812" lon="7.05421">
        <ele>2526.060303</ele>
        <time>2010-06-15T14:30:47.281Z</time>
      </trkpt>
      <trkpt lat="45.68117" lon="7.05458">
        <ele>2517.129883</ele>
        <time>2010-06-15T14:30:47.281Z</time>
      </trkpt>
      <trkpt lat="45.68091" lon="7.05442">
        <ele>2505.578125</ele>
        <time>2010-06-15T14:30:47.281Z</time>
      </trkpt>
      <trkpt lat="45.68064" lon="7.05371">
        <ele>2489.515137</ele>
        <time>2010-06-15T14:30:47.281Z</time>
      </trkpt>
      <trkpt lat="45.68036" lon="7.0536">
        <ele>2475.524658</ele>
        <time>2010-06-15T14:30:47.281Z</time>
      </trkpt>
      <trkpt lat="45.68021" lon="7.05272">
        <ele>2454.280029</ele>
        <time>2010-06-15T14:30:47.281Z</time>
      </trkpt>
      <trkpt lat="45.67987" lon="7.05224">
        <ele>2442.54541</ele>
        <time>2010-06-15T14:30:47.281Z</time>
      </trkpt>
      <trkpt lat="45.67928" lon="7.05242">
        <ele>2441.112793</ele>
        <time>2010-06-15T14:30:47.281Z</time>
      </trkpt>
      <trkpt lat="45.67912" lon="7.05269">
        <ele>2438.948486</ele>
        <time>2010-06-15T14:30:47.281Z</time>
      </trkpt>
      <trkpt lat="45.67779" lon="7.05223">
        <ele>2406.243652</ele>
        <time>2010-06-15T14:30:47.281Z</time>
      </trkpt>
      <trkpt lat="45.67706" lon="7.05158">
        <ele>2391.735107</ele>
        <time>2010-06-15T14:30:47.281Z</time>
      </trkpt>
      <trkpt lat="45.67721" lon="7.05455">
        <ele>2350.343262</ele>
        <time>2010-06-15T14:30:47.281Z</time>
      </trkpt>
      <trkpt lat="45.67754" lon="7.05522">
        <ele>2345.984619</ele>
        <time>2010-06-15T14:30:47.281Z</time>
      </trkpt>
      <trkpt lat="45.67843" lon="7.05607">
        <ele>2335.408203</ele>
        <time>2010-06-15T14:30:47.281Z</time>
      </trkpt>
      <trkpt lat="45.67975" lon="7.05824">
        <ele>2322.66748</ele>
        <time>2010-06-15T14:30:47.281Z</time>
      </trkpt>
      <trkpt lat="45.67997" lon="7.05895">
        <ele>2316.053223</ele>
        <time>2010-06-15T14:30:47.281Z</time>
      </trkpt>
      <trkpt lat="45.67952" lon="7.06139">
        <ele>2310.262207</ele>
        <time>2010-06-15T14:30:47.281Z</time>
      </trkpt>
      <trkpt lat="45.67959" lon="7.06214">
        <ele>2306.817871</ele>
        <time>2010-06-15T14:30:47.281Z</time>
      </trkpt>
      <trkpt lat="45.67936" lon="7.06283">
        <ele>2303.43457</ele>
        <time>2010-06-15T14:30:47.281Z</time>
      </trkpt>
      <trkpt lat="45.67944" lon="7.06382">
        <ele>2278.684814</ele>
        <time>2010-06-15T14:30:47.281Z</time>
      </trkpt>
      <trkpt lat="45.67884" lon="7.06513">
        <ele>2227.722168</ele>
        <time>2010-06-15T14:30:47.281Z</time>
      </trkpt>
      <trkpt lat="45.67871" lon="7.06635">
        <ele>2220.498535</ele>
        <time>2010-06-15T14:30:47.281Z</time>
      </trkpt>
      <trkpt lat="45.67884" lon="7.06758">
        <ele>2214.219482</ele>
        <time>2010-06-15T14:30:47.281Z</time>
      </trkpt>
      <trkpt lat="45.67904" lon="7.06783">
        <ele>2212.146973</ele>
        <time>2010-06-15T14:30:47.281Z</time>
      </trkpt>
      <trkpt lat="45.67896" lon="7.06874">
        <ele>2205.228027</ele>
        <time>2010-06-15T14:30:47.281Z</time>
      </trkpt>
      <trkpt lat="45.67953" lon="7.06975">
        <ele>2191.511963</ele>
        <time>2010-06-15T14:30:47.281Z</time>
      </trkpt>
      <trkpt lat="45.68062" lon="7.07277">
        <ele>2168.682617</ele>
        <time>2010-06-15T14:30:47.281Z</time>
      </trkpt>
      <trkpt lat="45.68046" lon="7.07277">
        <ele>2168.04248</ele>
        <time>2010-06-15T14:30:47.281Z</time>
      </trkpt>
      <trkpt lat="45.68063" lon="7.07334">
        <ele>2154.113037</ele>
        <time>2010-06-15T14:30:47.281Z</time>
      </trkpt>
      <trkpt lat="45.68061" lon="7.07376">
        <ele>2139.025391</ele>
        <time>2010-06-15T14:30:47.281Z</time>
      </trkpt>
      <trkpt lat="45.68049" lon="7.07371">
        <ele>2139.391113</ele>
        <time>2010-06-15T14:30:47.281Z</time>
      </trkpt>
      <trkpt lat="45.68056" lon="7.07505">
        <ele>2097.877441</ele>
        <time>2010-06-15T14:30:47.281Z</time>
      </trkpt>
      <trkpt lat="45.68046" lon="7.07477">
        <ele>2099.431885</ele>
        <time>2010-06-15T14:30:47.281Z</time>
      </trkpt>
      <trkpt lat="45.68005" lon="7.07524">
        <ele>2064.776123</ele>
        <time>2010-06-15T14:30:47.281Z</time>
      </trkpt>
      <trkpt lat="45.67938" lon="7.0774">
        <ele>-294.162476</ele>
        <time>2010-06-15T14:30:47.281Z</time>
      </trkpt>
      <trkpt lat="45.67908" lon="7.07686">
        <ele>279.532074</ele>
        <time>2010-06-15T14:30:47.281Z</time>
      </trkpt>
      <trkpt lat="45.67891" lon="7.07755">
        <ele>-349.392242</ele>
        <time>2010-06-15T14:30:47.281Z</time>
      </trkpt>
      <trkpt lat="45.67854" lon="7.07775">
        <ele>357.560883</ele>
        <time>2010-06-15T14:30:47.281Z</time>
      </trkpt>
      <trkpt lat="45.67868" lon="7.07829">
        <ele>64.861443</ele>
        <time>2010-06-15T14:30:47.281Z</time>
      </trkpt>
      <trkpt lat="45.67837" lon="7.07881">
        <ele>-43.586399</ele>
        <time>2010-06-15T14:30:47.281Z</time>
      </trkpt>
      <trkpt lat="45.67859" lon="7.07945">
        <ele>-195.590164</ele>
        <time>2010-06-15T14:30:47.281Z</time>
      </trkpt>
      <trkpt lat="45.67846" lon="7.08013">
        <ele>-603.656372</ele>
        <time>2010-06-15T14:30:47.281Z</time>
      </trkpt>
      <trkpt lat="45.67894" lon="7.08088">
        <ele>1715.932617</ele>
        <time>2010-06-15T14:30:47.281Z</time>
      </trkpt>
      <trkpt lat="45.67912" lon="7.08176">
        <ele>708.690491</ele>
        <time>2010-06-15T14:30:47.281Z</time>
      </trkpt>
      <trkpt lat="45.67895" lon="7.08158">
        <ele>1337.797729</ele>
        <time>2010-06-15T14:30:47.281Z</time>
      </trkpt>
      <trkpt lat="45.67925" lon="7.08278">
        <ele>-211.165436</ele>
        <time>2010-06-15T14:30:47.281Z</time>
      </trkpt>
      <trkpt lat="45.67901" lon="7.08315">
        <ele>-170.657532</ele>
        <time>2010-06-15T14:30:47.281Z</time>
      </trkpt>
      <trkpt lat="45.6791" lon="7.08355">
        <ele>-172.547272</ele>
        <time>2010-06-15T14:30:47.281Z</time>
      </trkpt>
      <trkpt lat="45.67896" lon="7.08349">
        <ele>-158.861771</ele>
        <time>2010-06-15T14:30:47.281Z</time>
      </trkpt>
      <trkpt lat="45.67852" lon="7.08694">
        <ele>1708.891724</ele>
        <time>2010-06-15T14:30:47.281Z</time>
      </trkpt>
      <trkpt lat="45.67821" lon="7.08726">
        <ele>1899.90979</ele>
        <time>2010-06-15T14:30:47.281Z</time>
      </trkpt>
      <trkpt lat="45.67818" lon="7.08828">
        <ele>1840.961548</ele>
        <time>2010-06-15T14:30:47.281Z</time>
      </trkpt>
      <trkpt lat="45.67766" lon="7.08921">
        <ele>1635.526245</ele>
        <time>2010-06-15T14:30:47.281Z</time>
      </trkpt>
      <trkpt lat="45.67762" lon="7.08864">
        <ele>1627.540649</ele>
        <time>2010-06-15T14:30:47.281Z</time>
      </trkpt>
      <trkpt lat="45.67671" lon="7.09052">
        <ele>1628.302612</ele>
        <time>2010-06-15T14:30:47.281Z</time>
      </trkpt>
      <trkpt lat="45.67698" lon="7.08798">
        <ele>1597.395752</ele>
        <time>2010-06-15T14:30:47.281Z</time>
      </trkpt>
      <trkpt lat="45.67676" lon="7.08565">
        <ele>1579.869751</ele>
        <time>2010-06-15T14:30:47.281Z</time>
      </trkpt>
      <trkpt lat="45.67537" lon="7.08227">
        <ele>1569.811401</ele>
        <time>2010-06-15T14:30:47.281Z</time>
      </trkpt>
      <trkpt lat="45.67409" lon="7.08204">
        <ele>1554.175171</ele>
        <time>2010-06-15T14:30:47.281Z</time>
      </trkpt>
      <trkpt lat="45.67357" lon="7.08094">
        <ele>1553.047363</ele>
        <time>2010-06-15T14:30:47.281Z</time>
      </trkpt>
      <trkpt lat="45.67344" lon="7.07998">
        <ele>1560.515015</ele>
        <time>2010-06-15T14:30:47.281Z</time>
      </trkpt>
      <trkpt lat="45.67053" lon="7.08003">
        <ele>1549.877441</ele>
        <time>2010-06-15T14:30:47.281Z</time>
      </trkpt>
      <trkpt lat="45.66823" lon="7.07768">
        <ele>1537.472168</ele>
        <time>2010-06-15T14:30:47.281Z</time>
      </trkpt>
      <trkpt lat="45.66744" lon="7.07805">
        <ele>1519.702271</ele>
        <time>2010-06-15T14:30:47.281Z</time>
      </trkpt>
      <trkpt lat="45.66449" lon="7.0764">
        <ele>1528.450073</ele>
        <time>2010-06-15T14:30:47.281Z</time>
      </trkpt>
      <trkpt lat="45.66378" lon="7.07646">
        <ele>1526.651855</ele>
        <time>2010-06-15T14:30:47.281Z</time>
      </trkpt>
      <trkpt lat="45.66303" lon="7.07566">
        <ele>1560.332275</ele>
        <time>2010-06-15T14:30:47.281Z</time>
      </trkpt>
      <trkpt lat="45.66197" lon="7.07582">
        <ele>1549.725098</ele>
        <time>2010-06-15T14:30:47.281Z</time>
      </trkpt>
      <trkpt lat="45.65825" lon="7.07456">
        <ele>1552.89502</ele>
        <time>2010-06-15T14:30:47.281Z</time>
      </trkpt>
      <trkpt lat="45.65813" lon="7.07474">
        <ele>1546.098022</ele>
        <time>2010-06-15T14:30:47.281Z</time>
      </trkpt>
      <trkpt lat="45.65588" lon="7.07414">
        <ele>1541.73938</ele>
        <time>2010-06-15T14:30:47.281Z</time>
      </trkpt>
      <trkpt lat="45.65489" lon="7.0728">
        <ele>1568.83606</ele>
        <time>2010-06-15T14:30:47.281Z</time>
      </trkpt>
      <trkpt lat="45.65465" lon="7.07313">
        <ele>1553.900879</ele>
        <time>2010-06-15T14:30:47.281Z</time>
      </trkpt>
      <trkpt lat="45.65375" lon="7.0729">
        <ele>1552.346436</ele>
        <time>2010-06-15T14:30:47.281Z</time>
      </trkpt>
      <trkpt lat="45.65358" lon="7.07313">
        <ele>1544.756958</ele>
        <time>2010-06-15T14:30:47.281Z</time>
      </trkpt>
      <trkpt lat="45.65321" lon="7.0731">
        <ele>1544.543457</ele>
        <time>2010-06-15T14:30:47.281Z</time>
      </trkpt>
      <trkpt lat="45.65144" lon="7.07101">
        <ele>1564.294678</ele>
        <time>2010-06-15T14:30:47.281Z</time>
      </trkpt>
      <trkpt lat="45.64912" lon="7.07073">
        <ele>1574.749146</ele>
        <time>2010-06-15T14:30:47.281Z</time>
      </trkpt>
      <trkpt lat="45.6474" lon="7.06948">
        <ele>1594.317383</ele>
        <time>2010-06-15T14:30:47.281Z</time>
      </trkpt>
      <trkpt lat="45.64703" lon="7.06892">
        <ele>1599.376953</ele>
        <time>2010-06-15T14:30:47.281Z</time>
      </trkpt>
      <trkpt lat="45.64426" lon="7.0684">
        <ele>1606.417847</ele>
        <time>2010-06-15T14:30:47.281Z</time>
      </trkpt>
      <trkpt lat="45.64395" lon="7.06811">
        <ele>1603.126099</ele>
        <time>2010-06-15T14:30:47.281Z</time>
      </trkpt>
      <trkpt lat="45.64353" lon="7.06691">
        <ele>1608.124756</ele>
        <time>2010-06-15T14:30:47.281Z</time>
      </trkpt>
      <trkpt lat="45.6429" lon="7.0663">
        <ele>1614.342651</ele>
        <time>2010-06-15T14:30:47.281Z</time>
      </trkpt>
      <trkpt lat="45.64197" lon="7.06591">
        <ele>1622.236938</ele>
        <time>2010-06-15T14:30:47.281Z</time>
      </trkpt>
      <trkpt lat="45.63813" lon="7.0658">
        <ele>1613.45874</ele>
        <time>2010-06-15T14:30:47.281Z</time>
      </trkpt>
      <trkpt lat="45.63431" lon="7.06478">
        <ele>1646.560059</ele>
        <time>2010-06-15T14:30:47.281Z</time>
      </trkpt>
      <trkpt lat="45.63368" lon="7.06539">
        <ele>1649.364136</ele>
        <time>2010-06-15T14:30:47.281Z</time>
      </trkpt>
      <trkpt lat="45.6333" lon="7.0654">
        <ele>1652.473145</ele>
        <time>2010-06-15T14:30:47.281Z</time>
      </trkpt>
      <trkpt lat="45.63205" lon="7.06493">
        <ele>1656.526978</ele>
        <time>2010-06-15T14:30:47.281Z</time>
      </trkpt>
      <trkpt lat="45.63122" lon="7.06431">
        <ele>1667.46936</ele>
        <time>2010-06-15T14:30:47.281Z</time>
      </trkpt>
      <trkpt lat="45.63004" lon="7.06433">
        <ele>1658.630249</ele>
        <time>2010-08-30T08:07:05.880Z</time>
      </trkpt>
    </trkseg>
  </trk>
</gpx>